Overview Statistics Trail Chart Weather Telemetry Raw packets
 

This is the latest recevied weather packets stored in our database for station/object N2ZVN. If no packets are shown the sender has not sent any weather packets the latest 10 day(s).

<< 13 14 15 16 17 18 19 >>
Time Temp. Humidity Pressure Rain* Wind** Luminosity Snow
1788615895 21.11° C 77% 1015.5 hPa 0 mm - 459 W/m² -
1788615595 21.11° C 76% 1015.5 hPa 0 mm - 430 W/m² -
1788615290 21.11° C 77% 1015.4 hPa 0 mm - 414 W/m² -
1788614989 21.11° C 76% 1015.5 hPa 0 mm - 415 W/m² -
1788614685 21.11° C 78% 1015.6 hPa 0 mm - 155 W/m² -
1788614379 21.11° C 78% 1015.6 hPa 0 mm - 408 W/m² -
1788614079 20.56° C 79% 1015.7 hPa 0 mm - 384 W/m² -
1788613770 21.11° C 78% 1015.8 hPa 0 mm - 76 W/m² -
1788613470 21.11° C 78% 1015.8 hPa 0 mm - 317 W/m² -
1788613169 21.11° C 79% 1015.6 hPa 0 mm - 313 W/m² -
1788612864 21.11° C 81% 1015.8 hPa 0 mm - 299 W/m² -
1788612560 20.56° C 79% 1015.8 hPa 0 mm - 267 W/m² -
1788612257 20.56° C 79% 1015.9 hPa 0 mm - 220 W/m² -
1788611956 20.56° C 81% 1015.6 hPa 0 mm - 169 W/m² -
1788611653 20.56° C 84% 1015.6 hPa 0 mm - 141 W/m² -
1788611348 20.56° C 83% 1015.8 hPa 0 mm - 124 W/m² -
1788611047 20° C 85% 1015.7 hPa 0 mm - 107 W/m² -
1788610743 20° C 85% 1015.6 hPa 0 mm - 95 W/m² -
1788610439 18.89° C 89% 1015.6 hPa 0 mm - 86 W/m² -
1788610138 17.78° C 92% 1015.6 hPa 0 mm - 81 W/m² -
1788609838 17.78° C 93% 1015.7 hPa 0 mm - 75 W/m² -
1788609533 17.22° C 93% 1015.5 hPa 0 mm - 60 W/m² -
1788609232 17.22° C 96% 1015.6 hPa 0 mm - 32 W/m² -
1788608927 16.67° C 98% 1015.4 hPa 0 mm - 25 W/m² -
1788608626 16.67° C 99% 1015.4 hPa 0 mm - 33 W/m² -

* Rain latest hour (hover to see other rain measurements)
** Current wind speed in m/s (hover to see current wind gust speed)